| time (UTC) | temp F | wind direction | speed knots | gust knots | rain 1hr in | rain 24hr in | rain mn in | humidity % | barometer mb |
| 20260508012035 | 64 | 120 | 0.0 | 1.7 | 0.00 | 0.00 | 0.00 | 78 | 1014.1 |
| 20260508011603 | 63 | 120 | 0.0 | 0.9 | 0.00 | 0.00 | 0.00 | 77 | 1014.5 |
| 20260508010235 | 65 | 116 | 0.0 | 0.9 | 0.00 | 0.00 | 0.00 | 76 | 1014.0 |
| 20260508010106 | 65 | 120 | 0.0 | 0.9 | 0.00 | 0.00 | 0.00 | 75 | 1014.4 |
| 20260508005335 | 66 | 88 | 0.0 | 0.9 | 0.00 | 0.00 | 0.00 | 74 | 1013.9 |
| 20260508004604 | 66 | 125 | 0.0 | 0.9 | 0.00 | 0.00 | 0.00 | 72 | 1014.2 |
| 20260508004435 | 66 | 327 | 0.0 | 0.9 | 0.00 | 0.00 | 0.00 | 72 | 1013.8 |
| 20260508003535 | 67 | 0 | 0.0 | 0.0 | 0.00 | 0.00 | 0.00 | 73 | 1013.7 |
| 20260508003108 | 66 | 61 | 0.0 | 0.9 | 0.00 | 0.00 | 0.00 | 72 | 1014.0 |
| 20260508002634 | 67 | 321 | 0.0 | 0.9 | 0.00 | 0.00 | 0.00 | 72 | 1013.7 |
| 20260508001735 | 68 | 0 | 0.0 | 0.0 | 0.00 | 0.00 | 0.00 | 70 | 1013.8 |
| 20260508001504 | 67 | 355 | 0.0 | 0.0 | 0.00 | 0.00 | 0.00 | 71 | 1014.1 |
| 20260508000834 | 68 | 139 | 0.0 | 1.7 | 0.00 | 0.00 | 0.00 | 69 | 1013.8 |
| 20260508000104 | 68 | 109 | 0.0 | 1.7 | 0.00 | 0.00 | 0.00 | 68 | 1014.2 |
| 20260507235934 | 68 | 134 | 0.9 | 1.7 | 0.00 | 0.00 | 0.00 | 68 | 1013.8 |
| 20260507235035 | 68 | 133 | 0.9 | 2.6 | 0.00 | 0.00 | 0.00 | 67 | 1013.9 |
| 20260507234503 | 68 | 134 | 0.9 | 2.6 | 0.00 | 0.00 | 0.00 | 67 | 1014.4 |
| 20260507233234 | 69 | 177 | 0.9 | 2.6 | 0.00 | 0.00 | 0.00 | 67 | 1013.9 |
| 20260507233002 | 69 | 161 | 0.9 | 2.6 | 0.00 | 0.00 | 0.00 | 66 | 1014.3 |
| 20260507231502 | 69 | 180 | 0.9 | 3.5 | 0.00 | 0.00 | 0.00 | 63 | 1014.4 |
| 20260507230534 | 70 | 151 | 1.7 | 4.3 | 0.00 | 0.00 | 0.00 | 63 | 1013.9 |
| 20260507230008 | 70 | 158 | 1.7 | 4.3 | 0.00 | 0.02 | 0.00 | 63 | 1014.3 |
| 20260507225634 | 70 | 153 | 2.6 | 4.3 | 0.00 | 0.00 | 0.00 | 62 | 1014.0 |
| 20260507224734 | 70 | 138 | 2.6 | 5.2 | 0.00 | 0.00 | 0.00 | 62 | 1014.0 |
| 20260507224505 | 70 | 134 | 0.9 | 5.2 | 0.00 | 0.02 | 0.00 | 63 | 1014.3 |
| 20260507223834 | 71 | 154 | 3.5 | 5.2 | 0.00 | 0.00 | 0.00 | 61 | 1013.9 |
| 20260507223005 | 71 | 176 | 1.7 | 5.2 | 0.00 | 0.02 | 0.00 | 61 | 1014.6 |
| 20260507222934 | 71 | 151 | 2.6 | 5.2 | 0.00 | 0.00 | 0.00 | 61 | 1014.1 |
| 20260507222034 | 72 | 163 | 3.5 | 6.1 | 0.00 | 0.01 | 0.00 | 59 | 1014.1 |
| 20260507221603 | 72 | 153 | 2.6 | 6.1 | 0.00 | 0.02 | 0.00 | 59 | 1014.6 |
| 20260507221134 | 73 | 156 | 3.5 | 6.1 | 0.00 | 0.02 | 0.00 | 55 | 1014.1 |
| 20260507220235 | 74 | 158 | 1.7 | 3.5 | 0.00 | 0.02 | 0.00 | 51 | 1013.9 |
| 20260507215334 | 74 | 197 | 0.0 | 2.6 | 0.00 | 0.02 | 0.00 | 54 | 1014.0 |
| 20260507214608 | 73 | 236 | 0.0 | 1.7 | 0.00 | 0.02 | 0.00 | 51 | 1014.5 |
| 20260507214434 | 74 | 100 | 0.0 | 1.7 | 0.00 | 0.02 | 0.00 | 50 | 1014.1 |
| 20260507213534 | 74 | 67 | 0.9 | 2.6 | 0.00 | 0.02 | 0.00 | 49 | 1014.1 |
| 20260507213007 | 74 | 61 | 0.0 | 1.7 | 0.00 | 0.02 | 0.00 | 51 | 1014.6 |
| 20260507212634 | 74 | 60 | 0.9 | 2.6 | 0.00 | 0.02 | 0.00 | 52 | 1014.1 |
| 20260507211734 | 75 | 169 | 1.7 | 4.3 | 0.00 | 0.02 | 0.00 | 47 | 1014.1 |
| 20260507211616 | 75 | 40 | 0.9 | 4.3 | 0.00 | 0.02 | 0.00 | 48 | 1014.6 |
| 20260507210005 | 73 | 108 | 0.9 | 3.5 | 0.00 | 0.02 | 0.00 | 52 | 1014.8 |
| 20260507205934 | 74 | 96 | 1.7 | 4.3 | 0.00 | 0.02 | 0.00 | 51 | 1014.3 |
| 20260507205034 | 74 | 135 | 2.6 | 5.2 | 0.00 | 0.02 | 0.00 | 51 | 1014.4 |
| 20260507204607 | 74 | 153 | 1.7 | 5.2 | 0.00 | 0.02 | 0.00 | 54 | 1014.8 |
| 20260507204134 | 74 | 139 | 2.6 | 5.2 | 0.00 | 0.02 | 0.00 | 50 | 1014.6 |
| 20260507203005 | 73 | 104 | 0.9 | 4.3 | 0.00 | 0.02 | 0.00 | 52 | 1015.1 |
| 20260507202334 | 73 | 55 | 1.7 | 5.2 | 0.00 | 0.02 | 0.00 | 52 | 1014.6 |
| 20260507201506 | 72 | 325 | 0.0 | 5.2 | 0.00 | 0.02 | 0.00 | 55 | 1015.4 |
| 20260507201434 | 73 | 113 | 0.9 | 4.3 | 0.00 | 0.02 | 0.00 | 54 | 1015.0 |
| 20260507200111 | 72 | 28 | 0.9 | 5.2 | 0.00 | 0.02 | 0.00 | 52 | 1015.6 |
| 20260507195634 | 72 | 15 | 1.7 | 5.2 | 0.00 | 0.02 | 0.00 | 53 | 1015.1 |
| 20260507194506 | 70 | 88 | 0.9 | 4.3 | 0.00 | 0.02 | 0.00 | 58 | 1015.3 |
| 20260507193834 | 71 | 343 | 2.6 | 4.3 | 0.00 | 0.02 | 0.00 | 53 | 1015.0 |
| 20260507193105 | 70 | 360 | 1.7 | 6.1 | 0.00 | 0.02 | 0.00 | 54 | 1015.7 |
| 20260507192934 | 71 | 310 | 3.5 | 6.1 | 0.00 | 0.02 | 0.00 | 54 | 1015.3 |
| 20260507192034 | 71 | 343 | 2.6 | 5.2 | 0.00 | 0.02 | 0.00 | 52 | 1015.3 |
| 20260507191505 | 71 | 360 | 2.6 | 6.1 | 0.00 | 0.02 | 0.00 | 52 | 1015.9 |
| 20260507191134 | 71 | 242 | 1.7 | 6.1 | 0.00 | 0.02 | 0.00 | 53 | 1015.4 |
| 20260507190108 | 70 | 28 | 2.6 | 6.1 | 0.00 | 0.02 | 0.00 | 53 | 1015.9 |
| 20260507185334 | 70 | 91 | 3.5 | 7.0 | 0.00 | 0.02 | 0.00 | 55 | 1015.5 |
| 20260507184505 | 69 | 90 | 2.6 | 7.0 | 0.00 | 0.03 | 0.00 | 56 | 1016.3 |
| 20260507184434 | 70 | 340 | 2.6 | 6.1 | 0.00 | 0.02 | 0.00 | 56 | 1015.8 |
| 20260507183534 | 70 | 316 | 2.6 | 7.0 | 0.00 | 0.02 | 0.00 | 53 | 1015.9 |
| 20260507183107 | 70 | 278 | 0.9 | 4.3 | 0.00 | 0.03 | 0.00 | 55 | 1016.6 |
| 20260507182634 | 70 | 334 | 0.9 | 4.3 | 0.00 | 0.02 | 0.00 | 53 | 1016.1 |
| 20260507181734 | 69 | 312 | 2.6 | 7.0 | 0.00 | 0.02 | 0.00 | 55 | 1016.5 |
| 20260507181605 | 68 | 324 | 3.5 | 7.0 | 0.00 | 0.03 | 0.00 | 56 | 1017.0 |
| 20260507180834 | 69 | 320 | 3.5 | 7.8 | 0.00 | 0.02 | 0.00 | 53 | 1016.6 |
| 20260507180004 | 69 | 316 | 3.5 | 7.8 | 0.00 | 0.05 | 0.00 | 54 | 1017.2 |
| 20260507175034 | 70 | 160 | 1.7 | 5.2 | 0.00 | 0.04 | 0.00 | 56 | 1016.9 |
| 20260507174507 | 69 | 152 | 2.6 | 5.2 | 0.00 | 0.05 | 0.00 | 62 | 1017.4 |
| 20260507174134 | 69 | 60 | 1.7 | 4.3 | 0.00 | 0.04 | 0.00 | 61 | 1017.0 |
| 20260507173105 | 68 | 21 | 0.9 | 5.2 | 0.00 | 0.05 | 0.00 | 59 | 1017.6 |
| 20260507171509 | 68 | 146 | 2.6 | 5.2 | 0.00 | 0.05 | 0.00 | 59 | 1017.9 |
| 20260507170534 | 67 | 349 | 1.7 | 5.2 | 0.00 | 0.05 | 0.00 | 60 | 1017.6 |
| 20260507170106 | 66 | 79 | 1.7 | 5.2 | 0.00 | 0.05 | 0.00 | 59 | 1018.2 |
| 20260507165634 | 67 | 350 | 2.6 | 5.2 | 0.00 | 0.05 | 0.00 | 61 | 1017.7 |
| 20260507164607 | 67 | 292 | 2.6 | 6.1 | 0.00 | 0.05 | 0.00 | 62 | 1018.5 |
| 20260507163834 | 67 | 72 | 1.7 | 4.3 | 0.00 | 0.05 | 0.00 | 59 | 1018.0 |
| 20260507163103 | 66 | 132 | 1.7 | 6.1 | 0.00 | 0.05 | 0.00 | 61 | 1018.6 |
| 20260507162934 | 66 | 45 | 1.7 | 7.0 | 0.00 | 0.05 | 0.00 | 59 | 1018.1 |
| 20260507162034 | 66 | 77 | 0.9 | 3.5 | 0.00 | 0.05 | 0.00 | 64 | 1018.0 |
| 20260507161504 | 66 | 119 | 0.0 | 3.5 | 0.00 | 0.05 | 0.00 | 62 | 1018.6 |
| 20260507161134 | 66 | 37 | 1.7 | 5.2 | 0.00 | 0.05 | 0.00 | 61 | 1018.1 |
| 20260507160234 | 67 | 144 | 1.7 | 3.5 | 0.00 | 0.05 | 0.00 | 60 | 1018.2 |
| 20260507160010 | 67 | 350 | 0.9 | 3.5 | 0.00 | 0.05 | 0.00 | 64 | 1018.7 |
| 20260507155334 | 66 | 89 | 1.7 | 4.3 | 0.00 | 0.05 | 0.00 | 62 | 1018.2 |
| 20260507154507 | 65 | 105 | 0.9 | 4.3 | 0.00 | 0.05 | 0.00 | 64 | 1018.8 |
| 20260507154434 | 66 | 76 | 1.7 | 4.3 | 0.00 | 0.05 | 0.00 | 64 | 1018.2 |
| 20260507153534 | 65 | 21 | 1.7 | 5.2 | 0.00 | 0.05 | 0.00 | 70 | 1018.3 |
| 20260507153111 | 64 | 53 | 2.6 | 5.2 | 0.00 | 0.05 | 0.00 | 64 | 1018.8 |
| 20260507152634 | 64 | 347 | 1.7 | 4.3 | 0.00 | 0.05 | 0.00 | 64 | 1018.4 |
| 20260507151504 | 64 | 116 | 0.9 | 5.2 | 0.00 | 0.05 | 0.00 | 66 | 1019.1 |
| 20260507150834 | 64 | 25 | 1.7 | 4.3 | 0.00 | 0.05 | 0.00 | 67 | 1018.7 |
| 20260507150105 | 63 | 48 | 1.7 | 4.3 | 0.00 | 0.05 | 0.00 | 66 | 1019.3 |
| 20260507145034 | 63 | 84 | 2.6 | 7.0 | 0.00 | 0.05 | 0.00 | 68 | 1018.7 |
| 20260507144605 | 63 | 74 | 1.7 | 4.3 | 0.00 | 0.05 | 0.00 | 71 | 1019.4 |
| 20260507144134 | 63 | 41 | 1.7 | 6.1 | 0.00 | 0.05 | 0.00 | 70 | 1018.7 |
| 20260507143234 | 62 | 66 | 0.9 | 5.2 | 0.00 | 0.05 | 0.00 | 74 | 1018.8 |
| 20260507143114 | 62 | 97 | 1.7 | 5.2 | 0.00 | 0.05 | 0.00 | 76 | 1019.3 |
| 20260507142334 | 61 | 72 | 1.7 | 4.3 | 0.00 | 0.05 | 0.00 | 75 | 1018.8 |
| 20260507141503 | 59 | 350 | 1.7 | 4.3 | 0.00 | 0.05 | 0.00 | 76 | 1019.3 |
| 20260507141434 | 60 | 47 | 0.9 | 5.2 | 0.00 | 0.05 | 0.00 | 76 | 1018.7 |
| 20260507140004 | 58 | 321 | 1.7 | 4.3 | 0.00 | 0.06 | 0.00 | 84 | 1019.2 |
| 20260507135634 | 58 | 340 | 2.6 | 4.3 | 0.00 | 0.06 | 0.00 | 86 | 1018.7 |
| 20260507134734 | 56 | 327 | 0.9 | 4.3 | 0.00 | 0.06 | 0.00 | 95 | 1018.7 |
| 20260507134509 | 56 | 331 | 1.7 | 4.3 | 0.00 | 0.06 | 0.00 | 96 | 1019.3 |
| 20260507133834 | 56 | 170 | 0.9 | 1.7 | 0.00 | 0.06 | 0.00 | 97 | 1018.7 |
| 20260507133134 | 55 | 221 | 0.0 | 1.7 | 0.00 | 0.06 | 0.00 | 97 | 1019.1 |
| 20260507132934 | 55 | 164 | 0.9 | 1.7 | 0.00 | 0.06 | 0.00 | 97 | 1018.4 |
| 20260507132034 | 55 | 141 | 1.7 | 4.3 | 0.00 | 0.06 | 0.00 | 97 | 1018.3 |
| 20260507131604 | 54 | 146 | 1.7 | 3.5 | 0.00 | 0.06 | 0.00 | 97 | 1018.9 |
| 20260507130234 | 52 | 174 | 0.9 | 1.7 | 0.00 | 0.06 | 0.00 | 97 | 1017.9 |
| 20260507130005 | 52 | 126 | 0.9 | 1.7 | 0.00 | 0.06 | 0.00 | 97 | 1018.4 |
| 20260507125334 | 51 | 201 | 0.9 | 1.7 | 0.00 | 0.06 | 0.00 | 96 | 1017.7 |
| 20260507124605 | 50 | 220 | 0.0 | 1.7 | 0.00 | 0.06 | 0.00 | 96 | 1018.2 |
| 20260507124434 | 50 | 236 | 0.0 | 1.7 | 0.00 | 0.06 | 0.00 | 96 | 1017.6 |
| 20260507123534 | 49 | 0 | 0.0 | 0.0 | 0.00 | 0.06 | 0.00 | 96 | 1017.4 |
| 20260507123105 | 48 | 350 | 0.0 | 0.0 | 0.00 | 0.06 | 0.00 | 95 | 1017.9 |
| 20260507122634 | 49 | 55 | 0.0 | 0.9 | 0.00 | 0.06 | 0.00 | 95 | 1017.2 |
| 20260507121734 | 49 | 302 | 0.0 | 0.9 | 0.00 | 0.06 | 0.00 | 95 | 1017.1 |
| 20260507121504 | 48 | 75 | 0.0 | 0.9 | 0.00 | 0.06 | 0.00 | 95 | 1017.7 |
| 20260507120834 | 49 | 280 | 0.0 | 0.9 | 0.00 | 0.06 | 0.00 | 95 | 1016.9 |
| 20260507120010 | 48 | 281 | 0.0 | 0.9 | 0.00 | 0.06 | 0.00 | 95 | 1017.2 |
| 20260507115934 | 49 | 327 | 0.0 | 0.9 | 0.00 | 0.06 | 0.00 | 95 | 1016.6 |
| 20260507115034 | 49 | 327 | 0.0 | 0.9 | 0.00 | 0.06 | 0.00 | 95 | 1016.4 |
| 20260507114640 | 48 | 328 | 0.0 | 0.9 | 0.00 | 0.06 | 0.00 | 95 | 1016.9 |
| 20260507114134 | 49 | 43 | 0.0 | 0.9 | 0.00 | 0.06 | 0.00 | 94 | 1016.4 |
| 20260507113234 | 49 | 0 | 0.0 | 0.0 | 0.00 | 0.06 | 0.00 | 94 | 1016.3 |
| 20260507113012 | 49 | 101 | 0.0 | 0.0 | 0.00 | 0.06 | 0.00 | 94 | 1016.9 |
| 20260507112334 | 49 | 0 | 0.0 | 0.0 | 0.00 | 0.06 | 0.00 | 94 | 1016.5 |
| 20260507111506 | 49 | 102 | 0.0 | 0.0 | 0.00 | 0.06 | 0.00 | 94 | 1017.0 |
| 20260507111434 | 49 | 0 | 0.0 | 0.0 | 0.00 | 0.06 | 0.00 | 94 | 1016.5 |
| 20260507110534 | 50 | 0 | 0.0 | 0.0 | 0.00 | 0.06 | 0.00 | 94 | 1016.3 |
| 20260507110004 | 49 | 339 | 0.0 | 0.0 | 0.00 | 0.06 | 0.00 | 94 | 1016.9 |
| 20260507105634 | 50 | 0 | 0.0 | 0.0 | 0.00 | 0.06 | 0.00 | 94 | 1016.3 |
| 20260507104734 | 50 | 0 | 0.0 | 0.0 | 0.00 | 0.06 | 0.00 | 94 | 1016.3 |
| 20260507104606 | 50 | 339 | 0.0 | 0.0 | 0.00 | 0.06 | 0.00 | 94 | 1016.9 |
| 20260507103004 | 50 | 339 | 0.0 | 0.0 | 0.00 | 0.06 | 0.00 | 94 | 1016.9 |
| 20260507102934 | 51 | 0 | 0.0 | 0.0 | 0.00 | 0.06 | 0.00 | 94 | 1016.4 |
| 20260507101614 | 51 | 339 | 0.0 | 0.0 | 0.00 | 0.06 | 0.00 | 94 | 1017.0 |
| 20260507101133 | 51 | 0 | 0.0 | 0.0 | 0.00 | 0.06 | 0.00 | 94 | 1016.4 |
| 20260507100233 | 51 | 0 | 0.0 | 0.0 | 0.00 | 0.06 | 0.00 | 94 | 1016.3 |
| 20260507100105 | 51 | 339 | 0.0 | 0.0 | 0.00 | 0.06 | 0.00 | 94 | 1016.8 |
| 20260507095334 | 51 | 338 | 0.0 | 0.9 | 0.00 | 0.06 | 0.00 | 94 | 1016.4 |
| 20260507094606 | 51 | 339 | 0.0 | 0.9 | 0.00 | 0.06 | 0.00 | 94 | 1016.8 |
| 20260507094434 | 52 | 0 | 0.0 | 0.0 | 0.00 | 0.06 | 0.00 | 94 | 1016.2 |
| 20260507093534 | 52 | 0 | 0.0 | 0.0 | 0.00 | 0.06 | 0.00 | 94 | 1016.0 |
| 20260507093104 | 52 | 339 | 0.0 | 0.0 | 0.00 | 0.06 | 0.00 | 94 | 1016.5 |
| 20260507092634 | 52 | 0 | 0.0 | 0.0 | 0.00 | 0.06 | 0.00 | 94 | 1016.0 |
| 20260507091733 | 52 | 0 | 0.0 | 0.0 | 0.00 | 0.06 | 0.00 | 94 | 1015.8 |
| 20260507091604 | 52 | 339 | 0.0 | 0.0 | 0.00 | 0.06 | 0.00 | 94 | 1016.4 |
| 20260507090833 | 53 | 0 | 0.0 | 0.0 | 0.00 | 0.06 | 0.00 | 94 | 1015.7 |
| 20260507090103 | 53 | 339 | 0.0 | 0.0 | 0.00 | 0.06 | 0.00 | 94 | 1016.1 |
| 20260507085033 | 53 | 0 | 0.0 | 0.0 | 0.00 | 0.06 | 0.00 | 94 | 1015.5 |
| 20260507084506 | 53 | 339 | 0.0 | 0.0 | 0.00 | 0.06 | 0.00 | 94 | 1016.0 |
| 20260507084133 | 54 | 0 | 0.0 | 0.0 | 0.00 | 0.06 | 0.00 | 94 | 1015.5 |
| 20260507083233 | 54 | 338 | 0.0 | 0.9 | 0.00 | 0.06 | 0.00 | 94 | 1015.6 |
| 20260507083008 | 53 | 339 | 0.0 | 1.7 | 0.00 | 0.06 | 0.00 | 94 | 1016.2 |
| 20260507082333 | 54 | 338 | 0.9 | 1.7 | 0.00 | 0.06 | 0.00 | 94 | 1015.8 |
| 20260507081606 | 53 | 339 | 0.9 | 3.5 | 0.00 | 0.06 | 0.00 | 94 | 1016.2 |
| 20260507080534 | 54 | 335 | 1.7 | 2.6 | 0.00 | 0.06 | 0.00 | 95 | 1015.8 |
| 20260507080120 | 53 | 336 | 1.7 | 3.5 | 0.00 | 0.06 | 0.00 | 95 | 1016.4 |
| 20260507075633 | 54 | 325 | 1.7 | 2.6 | 0.00 | 0.06 | 0.00 | 95 | 1015.9 |
| 20260507074733 | 54 | 320 | 1.7 | 2.6 | 0.00 | 0.06 | 0.00 | 94 | 1015.7 |
| 20260507074509 | 53 | 321 | 0.9 | 2.6 | 0.00 | 0.06 | 0.00 | 94 | 1016.2 |
| 20260507073109 | 54 | 321 | 0.0 | 0.0 | 0.00 | 0.06 | 0.00 | 94 | 1015.6 |
| 20260507072933 | 54 | 0 | 0.0 | 0.0 | 0.00 | 0.06 | 0.00 | 94 | 1015.2 |
| 20260507072033 | 54 | 0 | 0.0 | 0.0 | 0.00 | 0.06 | 0.00 | 94 | 1015.4 |
| 20260507071606 | 54 | 321 | 0.0 | 0.0 | 0.00 | 0.06 | 0.00 | 94 | 1016.0 |
| 20260507071133 | 54 | 0 | 0.0 | 0.0 | 0.00 | 0.06 | 0.00 | 94 | 1015.5 |
| 20260507070008 | 54 | 321 | 0.0 | 0.0 | 0.00 | 0.06 | 0.00 | 94 | 1016.3 |
| 20260507065333 | 54 | 0 | 0.0 | 0.0 | 0.00 | 0.06 | 0.00 | 94 | 1015.9 |
| 20260507064505 | 54 | 321 | 0.0 | 0.0 | 0.00 | 0.06 | 0.00 | 94 | 1016.5 |
| 20260507064433 | 54 | 0 | 0.0 | 0.0 | 0.00 | 0.06 | 0.00 | 94 | 1016.1 |
| 20260507063533 | 54 | 0 | 0.0 | 0.0 | 0.00 | 0.06 | 0.00 | 94 | 1016.2 |
| 20260507063107 | 54 | 321 | 0.0 | 0.0 | 0.00 | 0.06 | 0.00 | 94 | 1016.7 |
| 20260507062633 | 54 | 0 | 0.0 | 0.0 | 0.00 | 0.06 | 0.00 | 94 | 1016.2 |
| 20260507061733 | 54 | 0 | 0.0 | 0.0 | 0.00 | 0.06 | 0.00 | 94 | 1016.2 |
| 20260507061504 | 54 | 321 | 0.0 | 0.0 | 0.00 | 0.06 | 0.00 | 94 | 1016.7 |
| 20260507060833 | 54 | 0 | 0.0 | 0.0 | 0.00 | 0.06 | 0.00 | 94 | 1016.4 |
| 20260507060005 | 54 | 321 | 0.0 | 0.0 | 0.00 | 0.06 | 0.00 | 94 | 1016.9 |
| 20260507055933 | 54 | 0 | 0.0 | 0.0 | 0.00 | 0.06 | 0.00 | 94 | 1016.5 |
| 20260507055033 | 54 | 0 | 0.0 | 0.0 | 0.00 | 0.06 | 0.00 | 94 | 1016.6 |
| 20260507054516 | 54 | 321 | 0.0 | 0.0 | 0.00 | 0.06 | 0.00 | 94 | 1016.9 |
| 20260507054133 | 54 | 0 | 0.0 | 0.0 | 0.00 | 0.06 | 0.00 | 94 | 1016.5 |
| 20260507053233 | 54 | 0 | 0.0 | 0.0 | 0.00 | 0.06 | 0.00 | 94 | 1016.4 |
| 20260507053008 | 54 | 321 | 0.0 | 0.0 | 0.00 | 0.06 | 0.00 | 94 | 1016.8 |
| 20260507052333 | 54 | 0 | 0.0 | 0.0 | 0.00 | 0.06 | 0.00 | 94 | 1016.4 |
| 20260507051508 | 54 | 321 | 0.0 | 0.0 | 0.00 | 0.06 | 0.00 | 94 | 1016.8 |
| 20260507051433 | 54 | 0 | 0.0 | 0.0 | 0.00 | 0.06 | 0.00 | 94 | 1016.4 |
| 20260507050103 | 54 | 321 | 0.0 | 0.0 | 0.00 | 0.06 | 0.00 | 94 | 1016.8 |
| 20260507044733 | 54 | 0 | 0.0 | 0.0 | 0.00 | 0.06 | 0.06 | 94 | 1016.5 |
| 20260507043834 | 54 | 0 | 0.0 | 0.0 | 0.00 | 0.06 | 0.06 | 94 | 1016.4 |
| 20260507043103 | 54 | 321 | 0.0 | 0.0 | 0.00 | 0.06 | 0.06 | 94 | 1016.8 |
| 20260507042933 | 54 | 0 | 0.0 | 0.0 | 0.00 | 0.06 | 0.06 | 94 | 1016.3 |
| 20260507042033 | 54 | 0 | 0.0 | 0.0 | 0.00 | 0.06 | 0.06 | 94 | 1016.3 |
| 20260507041503 | 54 | 321 | 0.0 | 0.0 | 0.00 | 0.06 | 0.06 | 94 | 1016.6 |
| 20260507041133 | 54 | 0 | 0.0 | 0.0 | 0.00 | 0.06 | 0.06 | 94 | 1016.3 |
| 20260507040233 | 54 | 321 | 0.0 | 0.9 | 0.00 | 0.06 | 0.06 | 94 | 1016.2 |
| 20260507040011 | 54 | 321 | 0.0 | 0.9 | 0.00 | 0.06 | 0.06 | 94 | 1016.6 |
| 20260507034505 | 54 | 321 | 0.0 | 0.0 | 0.00 | 0.06 | 0.06 | 93 | 1016.5 |
| 20260507034433 | 54 | 0 | 0.0 | 0.0 | 0.00 | 0.06 | 0.06 | 93 | 1016.0 |
| 20260507033533 | 54 | 0 | 0.0 | 0.0 | 0.00 | 0.06 | 0.06 | 93 | 1015.9 |
| 20260507033004 | 54 | 321 | 0.0 | 0.0 | 0.00 | 0.06 | 0.06 | 93 | 1016.3 |
| 20260507032633 | 54 | 0 | 0.0 | 0.0 | 0.00 | 0.06 | 0.06 | 93 | 1015.8 |
| 20260507031733 | 54 | 0 | 0.0 | 0.0 | 0.00 | 0.06 | 0.06 | 93 | 1015.7 |
| 20260507031504 | 54 | 321 | 0.0 | 0.9 | 0.00 | 0.06 | 0.06 | 93 | 1016.1 |
| 20260507030005 | 54 | 321 | 0.0 | 1.7 | 0.00 | 0.06 | 0.06 | 93 | 1015.7 |
| 20260507025933 | 54 | 321 | 0.0 | 0.9 | 0.00 | 0.06 | 0.06 | 93 | 1015.3 |
| 20260507025033 | 54 | 0 | 0.0 | 0.0 | 0.00 | 0.06 | 0.06 | 93 | 1015.1 |
| 20260507024510 | 53 | 321 | 0.0 | 1.7 | 0.00 | 0.06 | 0.06 | 93 | 1015.3 |
| 20260507024133 | 54 | 320 | 0.9 | 1.7 | 0.00 | 0.06 | 0.06 | 93 | 1014.9 |
| 20260507023233 | 54 | 321 | 0.0 | 0.9 | 0.00 | 0.06 | 0.06 | 92 | 1014.8 |
| 20260507023104 | 53 | 321 | 0.0 | 0.9 | 0.00 | 0.06 | 0.06 | 92 | 1015.2 |
| 20260507022333 | 54 | 321 | 0.0 | 2.6 | 0.00 | 0.06 | 0.06 | 92 | 1014.8 |
| 20260507021509 | 53 | 321 | 0.0 | 1.7 | 0.00 | 0.06 | 0.06 | 93 | 1015.1 |
| 20260507021433 | 54 | 318 | 0.9 | 2.6 | 0.00 | 0.06 | 0.06 | 92 | 1014.8 |
| 20260507020533 | 54 | 318 | 0.9 | 3.5 | 0.00 | 0.06 | 0.06 | 93 | 1014.7 |
| 20260507020116 | 53 | 310 | 0.9 | 3.5 | 0.00 | 0.06 | 0.06 | 93 | 1015.0 |
| 20260507015633 | 54 | 1 | 0.9 | 2.6 | 0.00 | 0.06 | 0.06 | 93 | 1014.4 |
| 20260507014733 | 54 | 15 | 0.9 | 2.6 | 0.00 | 0.06 | 0.06 | 93 | 1014.2 |
| 20260507014508 | 53 | 22 | 0.0 | 2.6 | 0.00 | 0.06 | 0.06 | 93 | 1014.5 |
| 20260507013833 | 54 | 344 | 0.9 | 2.6 | 0.00 | 0.06 | 0.06 | 93 | 1014.1 |
| 20260507013103 | 53 | 336 | 0.0 | 1.7 | 0.00 | 0.06 | 0.06 | 93 | 1014.4 |
| 20260507012933 | 54 | 336 | 0.0 | 0.9 | 0.00 | 0.06 | 0.06 | 93 | 1013.9 |